South Bend, IN

6:57 PM EST on December 15, 2017 (GMT -0500)
South Bend Regional

Weather History for KSBN - April, 2014

Change the Weather History Date:

Thursday, April 10, 2014

  Actual Average Record
Temperature  
Mean Temperature 54 °F 47 °F  
Max Temperature 68 °F 57 °F 86 °F (1930)
Min Temperature 39 °F 37 °F 15 °F (1909)
Degree Days  
Heating Degree Days 11 18  
Month to date heating degree days 204 199  
Since 1 July heating degree days 6463 5743  
Cooling Degree Days 0 0  
Month to date cooling degree days 0 0  
Year to date cooling degree days 0 1  
Growing Degree Days 7 (Base 50)    
Moisture  
Dew Point 38 °F    
Average Humidity 57    
Maximum Humidity 77    
Minimum Humidity 37    
Precipitation  
Precipitation T in 0.11 in 1.04 in (2008)
Month to date precipitation 1.26 1.02  
Year to date precipitation 8.89 7.68  
Snow  
Snow 0.00 in 0.00 in 0.90 in (1982)
Month to date snowfall 0.8  
Since 1 July snowfall 66.0  
Snow Depth -    
Sea Level Pressure  
Sea Level Pressure 29.82 in    
Wind  
Wind Speed 13 mph (SW)    
Max Wind Speed 29 mph    
Max Gust Speed 38 mph    
Visibility 10 miles    
Events Rain    
T = Trace of Precipitation, MM = Missing Value Source: NWS Daily Summary

Daily Weather History Graph

Daily Weather History Graph

Search for Another Location

Airport or City:

Trip Planner

Search our weather history database for the weather conditions in past years. The results will help you decide how hot, cold, wet, or windy it might be!

Date:

Astronomy

Apr. 10, 2014 Rise Set
Actual Time 7:13 AM EDT 8:20 PM EDT
Civil Twilight 6:44 AM EDT 8:49 PM EDT
Nautical Twilight 6:10 AM EDT 9:23 PM EDT
Astronomical Twilight 5:35 AM EDT 9:59 PM EDT
Moon 4:00 PM EDT (4/10) 4:39 AM EDT (4/10)
Length of Visible Light 14h 04m
Length of Day
13h 07m
Waxing Gibbous, 79% of the Moon is Illuminated
Apr 10
Waxing Gibbous
Apr 15
Full
Apr 22
Last Quarter
Apr 29
New
May 6
First Quarter

Hourly Weather History & Observations

Time (EDT) Temp. Windchill Dew Point Humidity Pressure Visibility Wind Dir Wind Speed Gust Speed Precip Events Conditions
12:54 AM 53.1 °F - 32.0 °F 45% 29.93 in 10.0 mi SW 15.0 mph - N/A   Overcast
1:54 AM 52.0 °F - 32.0 °F 47% 29.91 in 10.0 mi SSW 15.0 mph - N/A   Partly Cloudy
2:54 AM 51.1 °F - 32.0 °F 48% 29.89 in 10.0 mi SSW 11.5 mph - N/A   Clear
3:54 AM 51.1 °F - 30.9 °F 46% 29.86 in 10.0 mi SSW 13.8 mph - N/A   Clear
4:54 AM 51.1 °F - 32.0 °F 48% 29.84 in 10.0 mi SSW 13.8 mph - N/A   Clear
5:54 AM 51.1 °F - 33.1 °F 50% 29.82 in 10.0 mi SSW 15.0 mph - N/A   Clear
6:54 AM 51.1 °F - 33.1 °F 50% 29.80 in 10.0 mi SSW 17.3 mph 26.5 mph N/A   Clear
7:54 AM 51.1 °F - 34.0 °F 52% 29.79 in 10.0 mi South 12.7 mph - N/A   Clear
8:54 AM 54.0 °F - 36.0 °F 51% 29.78 in 10.0 mi South 16.1 mph - N/A   Clear
9:54 AM 57.0 °F - 36.0 °F 45% 29.78 in 10.0 mi SSW 15.0 mph 23.0 mph N/A   Clear
10:54 AM 61.0 °F - 37.9 °F 42% 29.76 in 10.0 mi SW 24.2 mph 35.7 mph N/A   Clear
11:54 AM 63.0 °F - 39.0 °F 41% 29.75 in 10.0 mi SW 23.0 mph 33.4 mph N/A   Clear
12:54 PM 66.9 °F - 39.9 °F 37% 29.75 in 10.0 mi WSW 25.3 mph 33.4 mph N/A   Clear
1:54 PM 64.9 °F - 39.9 °F 40% 29.75 in 10.0 mi WSW 23.0 mph 33.4 mph N/A   Clear
2:54 PM 63.0 °F - 41.0 °F 45% 29.70 in 10.0 mi SSW 13.8 mph - 0.00 in   Mostly Cloudy
3:54 PM 62.1 °F - 42.1 °F 48% 29.76 in 10.0 mi SW 13.8 mph - 0.00 in Rain Light Rain
4:54 PM 60.1 °F - 45.0 °F 57% 29.80 in 10.0 mi West 11.5 mph - 0.00 in Rain Light Rain
5:54 PM 57.9 °F - 46.0 °F 65% 29.81 in 10.0 mi WNW 10.4 mph - 0.00 in Rain Light Rain
6:54 PM 59.0 °F - 44.1 °F 58% 29.84 in 10.0 mi West 9.2 mph - 0.00 in   Overcast
7:54 PM 57.0 °F - 44.1 °F 62% 29.85 in 10.0 mi WNW 3.5 mph - N/A   Scattered Clouds
8:54 PM 54.0 °F - 45.0 °F 72% 29.88 in 10.0 mi NNW 4.6 mph - N/A   Clear
9:54 PM 52.0 °F - 44.1 °F 74% 29.91 in 10.0 mi Calm Calm - N/A   Clear
10:54 PM 46.0 °F 44.8 °F 39.9 °F 79% 29.92 in 10.0 mi NNE 3.5 mph - N/A   Clear
11:54 PM 46.0 °F 44.8 °F 39.9 °F 79% 29.91 in 10.0 mi East 3.5 mph - N/A   Clear